START_TIME,STEP,MOV.,P11,t_acc.,P23,t_acc.,P27,t_acc.,A4,t_acc.
1979-07-16 18:00:23.150 ,0,1,1.,4.8,0.,4.8,0.,4.8,0.,4.8
1979-07-16 18:00:27.950 ,0,1,0.,4.8,0.,4.8,0.,4.8,0.,4.8
1979-07-16 18:00:32.750 ,0,1,0.,4.8,0.,4.8,0.,4.8,0.,4.8
1979-07-16 18:00:37.550 ,0,1,0.,4.8,0.,4.8,0.,4.8,0.,4.8
1979-07-16 18:00:42.350 ,0,1,1.,4.8,0.,4.8,0.,4.8,0.,4.8
1979-07-16 18:00:47.150 ,4,1,1.,4.8,0.,4.8,0.,4.8,1.,4.8
1979-07-16 18:00:51.950 ,4,1,0.,4.8,0.,4.8,0.,4.8,0.,4.8
1979-07-16 18:00:56.750 ,4,1,0.,4.8,0.,4.8,0.,4.8,0.,4.8
1979-07-16 18:01:01.550 ,4,1,1.,4.8,0.,4.8,0.,4.8,0.,4.8
1979-07-16 18:01:06.350 ,4,1,0.,4.8,0.,4.8,0.,4.8,0.,4.8
1979-07-16 18:01:11.150 ,7,1,0.,4.8,0.,4.8,0.,4.8,0.,4.8
1979-07-16 18:01:15.950 ,7,1,0.,4.8,0.,4.8,0.,4.8,0.,4.8
1979-07-16 18:01:20.750 ,7,1,0.,4.8,0.,4.8,0.,4.8,0.,4.8
1979-07-16 18:01:25.550 ,7,1,0.,4.8,0.,4.8,0.,4.8,0.,4.8
1979-07-16 18:01:30.350 ,7,1,0.,4.8,0.,4.8,0.,4.8,0.,4.8
1979-07-16 18:01:35.150 ,3,1,0.,4.8,0.,4.8,0.,4.8,0.,4.8
1979-07-16 18:01:39.950 ,3,1,0.,4.8,0.,4.8,0.,4.8,0.,4.8
1979-07-16 18:01:44.750 ,3,1,0.,4.8,0.,4.8,0.,4.8,0.,4.8
1979-07-16 18:01:49.550 ,3,1,0.,4.8,0.,4.8,0.,4.8,0.,4.8
1979-07-16 18:01:54.350 ,3,1,1.,4.8,0.,4.8,0.,4.8,0.,4.8
1979-07-16 18:01:59.150 ,0,1,0.,4.8,0.,4.8,0.,4.8,0.,4.8
1979-07-16 18:02:03.950 ,0,1,1.,4.8,0.,4.8,0.,4.8,0.,4.8
1979-07-16 18:02:08.750 ,0,1,1.,4.8,0.,4.8,0.,4.8,0.,4.8
1979-07-16 18:02:13.550 ,0,1,0.,4.8,0.,4.8,0.,4.8,0.,4.8
1979-07-16 18:02:18.350 ,0,1,1.,4.8,0.,4.8,0.,4.8,0.,4.8
1979-07-16 18:02:23.150 ,4,1,0.,4.8,0.,4.8,0.,4.8,0.,4.8
1979-07-16 18:02:27.950 ,4,1,0.,4.8,0.,4.8,0.,4.8,0.,4.8
1979-07-16 18:02:32.750 ,4,1,1.,4.8,0.,4.8,0.,4.8,0.,4.8
1979-07-16 18:02:37.550 ,4,1,0.,4.8,0.,4.8,0.,4.8,0.,4.8
1979-07-16 18:02:42.350 ,4,1,2.,4.8,0.,4.8,0.,4.8,0.,4.8
1979-07-16 18:02:47.150 ,7,1,0.,4.8,0.,4.8,0.,4.8,0.,4.8
1979-07-16 18:02:51.950 ,7,1,0.,4.8,0.,4.8,0.,4.8,0.,4.8
1979-07-16 18:02:56.750 ,7,1,0.,4.8,0.,4.8,0.,4.8,0.,4.8
1979-07-16 18:03:01.550 ,7,1,0.,4.8,0.,4.8,0.,4.8,0.,4.8
1979-07-16 18:03:06.350 ,7,1,1.,4.8,0.,4.8,0.,4.8,0.,4.8
1979-07-16 18:04:47.150 ,0,0,0.,4.8,0.,4.8,0.,4.8,0.,4.8
1979-07-16 18:04:51.950 ,0,0,0.,4.8,0.,4.8,0.,4.8,0.,4.8
1979-07-16 18:04:56.750 ,0,0,0.,4.8,0.,4.8,0.,4.8,0.,4.8
1979-07-16 18:05:01.550 ,0,0,1.,4.8,0.,4.8,0.,4.8,0.,4.8
1979-07-16 18:05:06.350 ,0,0,1.,4.8,0.,4.8,0.,4.8,0.,4.8
1979-07-16 18:05:11.150 ,0,1,0.,4.8,0.,4.8,0.,4.8,0.,4.8
1979-07-16 18:05:15.950 ,0,1,1.,4.8,0.,4.8,0.,4.8,0.,4.8
1979-07-16 18:05:20.750 ,0,1,1.,4.8,0.,4.8,0.,4.8,0.,4.8
1979-07-16 18:05:25.550 ,0,1,0.,4.8,0.,4.8,0.,4.8,0.,4.8
1979-07-16 18:05:30.350 ,0,1,1.,4.8,0.,4.8,0.,4.8,0.,4.8
1979-07-16 18:05:35.150 ,0,0,1.,4.8,0.,4.8,0.,4.8,0.,4.8
1979-07-16 18:05:39.950 ,0,0,0.,4.8,0.,4.8,0.,4.8,1.,4.8
1979-07-16 18:05:44.750 ,0,0,1.,4.8,0.,4.8,0.,4.8,0.,4.8
1979-07-16 18:05:49.550 ,0,0,0.,4.8,0.,4.8,0.,4.8,0.,4.8
1979-07-16 18:05:54.350 ,0,0,2.,4.8,0.,4.8,0.,4.8,0.,4.8
1979-07-16 18:05:59.150 ,0,0,1.,4.8,0.,4.8,0.,4.8,0.,4.8
1979-07-16 18:06:03.950 ,0,0,0.,4.8,0.,4.8,0.,4.8,0.,4.8
1979-07-16 18:06:08.750 ,0,0,0.,4.8,0.,4.8,0.,4.8,1.,4.8
1979-07-16 18:06:13.550 ,0,0,0.,4.8,0.,4.8,0.,4.8,0.,4.8
1979-07-16 18:06:18.350 ,0,0,0.,4.8,0.,4.8,0.,4.8,0.,4.8
1979-07-16 18:06:23.150 ,5,0,0.,4.8,0.,4.8,0.,4.8,0.,4.8
1979-07-16 18:06:27.950 ,5,0,0.,4.8,0.,4.8,0.,4.8,0.,4.8
1979-07-16 18:06:32.750 ,5,0,0.,4.8,0.,4.8,0.,4.8,0.,4.8
1979-07-16 18:06:37.550 ,5,0,0.,4.8,0.,4.8,0.,4.8,0.,4.8
1979-07-16 18:06:42.350 ,5,0,0.,4.8,0.,4.8,0.,4.8,1.,4.8
1979-07-16 18:06:47.150 ,0,0,0.,4.8,0.,4.8,0.,4.8,0.,4.8
1979-07-16 18:06:51.950 ,0,0,1.,4.8,0.,4.8,0.,4.8,0.,4.8
1979-07-16 18:06:56.750 ,0,0,0.,4.8,0.,4.8,0.,4.8,0.,4.8
1979-07-16 18:07:01.550 ,0,0,0.,4.8,0.,4.8,0.,4.8,0.,4.8
1979-07-16 18:07:06.350 ,0,0,,0,,0,,0,,0
1979-07-16 18:07:05.150 ,0,0,,0,,0,,0,,0
1979-07-16 18:07:09.950 ,0,0,,0,,0,,0,,0
1979-07-16 18:07:14.750 ,0,0,,0,,0,,0,,0
1979-07-16 18:07:19.550 ,0,0,,0,,0,,0,,0
1979-07-16 18:07:24.350 ,0,0,0.,4.8,0.,4.8,0.,4.8,0.,4.8
1979-07-16 18:07:11.150 ,4,0,0.,4.8,0.,4.8,0.,4.8,0.,4.8
1979-07-16 18:07:15.950 ,4,0,1.,4.8,0.,4.8,0.,4.8,0.,4.8
1979-07-16 18:07:20.750 ,4,0,0.,4.8,0.,4.8,0.,4.8,1.,4.8
1979-07-16 18:07:25.550 ,4,0,1.,4.8,0.,4.8,0.,4.8,0.,4.8
1979-07-16 18:07:30.350 ,4,0,0.,4.8,0.,4.8,0.,4.8,0.,4.8
1979-07-16 18:07:35.150 ,4,0,0.,4.8,0.,4.8,0.,4.8,0.,4.8
1979-07-16 18:07:39.950 ,4,0,0.,4.8,0.,4.8,0.,4.8,0.,4.8
1979-07-16 18:07:44.750 ,4,0,1.,4.8,0.,4.8,0.,4.8,0.,4.8
1979-07-16 18:07:49.550 ,4,0,1.,4.8,0.,4.8,0.,4.8,0.,4.8
1979-07-16 18:07:54.350 ,4,0,2.,4.8,0.,4.8,0.,4.8,0.,4.8
1979-07-16 18:07:59.150 ,3,0,2.,4.8,0.,4.8,0.,4.8,0.,4.8
1979-07-16 18:08:03.950 ,3,0,0.,4.8,0.,4.8,0.,4.8,0.,4.8
1979-07-16 18:08:08.750 ,3,0,0.,4.8,0.,4.8,0.,4.8,0.,4.8
1979-07-16 18:08:13.550 ,3,0,0.,4.8,0.,4.8,0.,4.8,0.,4.8
1979-07-16 18:08:18.350 ,3,0,0.,4.8,0.,4.8,0.,4.8,0.,4.8
1979-07-16 18:08:23.150 ,3,0,0.,4.8,0.,4.8,0.,4.8,0.,4.8
1979-07-16 18:08:27.950 ,3,0,1.,4.8,0.,4.8,0.,4.8,0.,4.8
1979-07-16 18:08:32.750 ,3,0,0.,4.8,0.,4.8,0.,4.8,0.,4.8
1979-07-16 18:08:37.550 ,3,0,0.,4.8,0.,4.8,0.,4.8,0.,4.8
1979-07-16 18:08:42.350 ,3,0,0.,4.8,0.,4.8,0.,4.8,0.,4.8
1979-07-16 18:08:47.150 ,2,0,0.,4.8,0.,4.8,0.,4.8,1.,4.8
1979-07-16 18:08:51.950 ,2,0,2.,4.8,0.,4.8,0.,4.8,0.,4.8
1979-07-16 18:08:56.750 ,2,0,0.,4.8,0.,4.8,0.,4.8,0.,4.8
1979-07-16 18:09:01.550 ,2,0,0.,4.8,0.,4.8,0.,4.8,0.,4.8
1979-07-16 18:09:06.350 ,2,0,0.,4.8,0.,4.8,0.,4.8,0.,4.8
1979-07-16 18:09:11.150 ,2,0,1.,4.8,0.,4.8,0.,4.8,0.,4.8
1979-07-16 18:09:15.950 ,2,0,0.,4.8,0.,4.8,0.,4.8,1.,4.8
1979-07-16 18:09:20.750 ,2,0,0.,4.8,0.,4.8,0.,4.8,0.,4.8
1979-07-16 18:09:25.550 ,2,0,3.,4.8,0.,4.8,0.,4.8,0.,4.8
1979-07-16 18:09:30.350 ,2,0,1.,4.8,0.,4.8,0.,4.8,0.,4.8
1979-07-16 18:09:35.150 ,1,0,1.,4.8,0.,4.8,0.,4.8,0.,4.8
1979-07-16 18:09:39.950 ,1,0,0.,4.8,0.,4.8,0.,4.8,0.,4.8
1979-07-16 18:09:44.750 ,1,0,0.,4.8,0.,4.8,0.,4.8,0.,4.8
1979-07-16 18:09:49.550 ,1,0,1.,4.8,0.,4.8,0.,4.8,0.,4.8
1979-07-16 18:09:54.350 ,1,0,0.,4.8,0.,4.8,0.,4.8,0.,4.8
1979-07-16 18:09:59.150 ,1,0,0.,4.8,0.,4.8,0.,4.8,0.,4.8
1979-07-16 18:10:03.950 ,1,0,0.,4.8,0.,4.8,0.,4.8,0.,4.8
1979-07-16 18:10:08.750 ,1,0,1.,4.8,0.,4.8,0.,4.8,0.,4.8
1979-07-16 18:10:13.550 ,1,0,1.,4.8,0.,4.8,0.,4.8,0.,4.8
1979-07-16 18:10:18.350 ,1,0,0.,4.8,0.,4.8,0.,4.8,0.,4.8
1979-07-16 18:10:23.150 ,0,0,0.,4.8,0.,4.8,0.,4.8,0.,4.8
1979-07-16 18:10:27.950 ,0,0,0.,4.8,0.,4.8,0.,4.8,0.,4.8
1979-07-16 18:10:32.750 ,0,0,0.,4.8,0.,4.8,0.,4.8,0.,4.8
1979-07-16 18:10:37.550 ,0,0,1.,4.8,0.,4.8,0.,4.8,0.,4.8
1979-07-16 18:10:42.350 ,0,0,0.,4.8,0.,4.8,0.,4.8,0.,4.8
1979-07-16 18:10:47.150 ,0,0,0.,4.8,0.,4.8,0.,4.8,0.,4.8
1979-07-16 18:10:51.950 ,0,0,1.,4.8,0.,4.8,0.,4.8,0.,4.8
1979-07-16 18:10:56.750 ,0,0,0.,4.8,0.,4.8,0.,4.8,0.,4.8
1979-07-16 18:11:01.550 ,0,0,1.,4.8,0.,4.8,0.,4.8,0.,4.8
1979-07-16 18:11:06.350 ,0,0,0.,4.8,0.,4.8,0.,4.8,0.,4.8
1979-07-16 18:11:11.150 ,0,0,1.,4.8,0.,4.8,0.,4.8,0.,4.8
1979-07-16 18:11:15.950 ,0,0,0.,4.8,0.,4.8,0.,4.8,0.,4.8
1979-07-16 18:11:20.750 ,0,0,1.,4.8,0.,4.8,0.,4.8,0.,4.8
1979-07-16 18:11:25.550 ,0,0,0.,4.8,0.,4.8,0.,4.8,0.,4.8
1979-07-16 18:11:30.350 ,0,0,0.,4.8,0.,4.8,0.,4.8,0.,4.8
1979-07-16 18:11:35.150 ,0,0,0.,4.8,0.,4.8,0.,4.8,0.,4.8
1979-07-16 18:11:39.950 ,0,0,0.,4.8,0.,4.8,0.,4.8,0.,4.8
1979-07-16 18:11:44.750 ,0,0,0.,4.8,0.,4.8,0.,4.8,0.,4.8
1979-07-16 18:11:49.550 ,0,0,2.,4.8,0.,4.8,0.,4.8,0.,4.8
1979-07-16 18:11:54.350 ,0,0,1.,4.8,0.,4.8,0.,4.8,0.,4.8
1979-07-16 18:11:59.150 ,1,0,0.,4.8,0.,4.8,0.,4.8,0.,4.8
1979-07-16 18:12:03.950 ,1,0,0.,4.8,0.,4.8,0.,4.8,0.,4.8
1979-07-16 18:12:08.750 ,1,0,0.,4.8,0.,4.8,0.,4.8,0.,4.8
1979-07-16 18:12:13.550 ,1,0,1.,4.8,0.,4.8,0.,4.8,0.,4.8
1979-07-16 18:12:18.350 ,1,0,0.,4.8,0.,4.8,0.,4.8,0.,4.8
1979-07-16 18:12:23.150 ,1,0,1.,4.8,0.,4.8,0.,4.8,0.,4.8
1979-07-16 18:12:27.950 ,1,0,1.,4.8,0.,4.8,0.,4.8,0.,4.8
1979-07-16 18:12:32.750 ,1,0,0.,4.8,0.,4.8,0.,4.8,0.,4.8
1979-07-16 18:12:37.550 ,1,0,0.,4.8,0.,4.8,0.,4.8,0.,4.8
1979-07-16 18:12:42.350 ,1,0,0.,4.8,0.,4.8,0.,4.8,0.,4.8
1979-07-16 18:12:47.150 ,2,0,0.,4.8,0.,4.8,0.,4.8,0.,4.8
1979-07-16 18:12:51.950 ,2,0,0.,4.8,0.,4.8,0.,4.8,0.,4.8
1979-07-16 18:12:56.750 ,2,0,1.,4.8,0.,4.8,0.,4.8,0.,4.8
1979-07-16 18:13:01.550 ,2,0,0.,4.8,0.,4.8,0.,4.8,0.,4.8
1979-07-16 18:13:06.350 ,2,0,0.,4.8,0.,4.8,0.,4.8,0.,4.8
1979-07-16 18:13:11.150 ,2,0,1.,4.8,0.,4.8,0.,4.8,1.,4.8
1979-07-16 18:13:15.950 ,2,0,0.,4.8,0.,4.8,0.,4.8,0.,4.8
1979-07-16 18:13:20.750 ,2,0,0.,4.8,0.,4.8,0.,4.8,0.,4.8
1979-07-16 18:13:25.550 ,2,0,1.,4.8,0.,4.8,0.,4.8,0.,4.8
1979-07-16 18:13:30.350 ,2,0,0.,4.8,0.,4.8,0.,4.8,0.,4.8
1979-07-16 18:13:35.150 ,3,0,0.,4.8,0.,4.8,0.,4.8,0.,4.8
1979-07-16 18:13:39.950 ,3,0,1.,4.8,0.,4.8,0.,4.8,0.,4.8
1979-07-16 18:13:44.750 ,3,0,0.,4.8,0.,4.8,0.,4.8,0.,4.8
1979-07-16 18:13:49.550 ,3,0,0.,4.8,0.,4.8,0.,4.8,0.,4.8
1979-07-16 18:13:54.350 ,3,0,1.,4.8,0.,4.8,0.,4.8,0.,4.8
1979-07-16 18:13:59.150 ,3,0,0.,4.8,0.,4.8,0.,4.8,0.,4.8
1979-07-16 18:14:03.950 ,3,0,0.,4.8,0.,4.8,0.,4.8,0.,4.8
1979-07-16 18:14:08.750 ,3,0,0.,4.8,0.,4.8,0.,4.8,0.,4.8
1979-07-16 18:14:13.550 ,3,0,0.,4.8,0.,4.8,0.,4.8,0.,4.8
1979-07-16 18:14:18.350 ,3,0,0.,4.8,0.,4.8,0.,4.8,0.,4.8
1979-07-16 18:14:23.150 ,4,0,0.,4.8,0.,4.8,0.,4.8,1.,4.8
1979-07-16 18:14:27.950 ,4,0,1.,4.8,0.,4.8,0.,4.8,0.,4.8
1979-07-16 18:14:32.750 ,4,0,0.,4.8,0.,4.8,0.,4.8,0.,4.8
1979-07-16 18:14:37.550 ,4,0,1.,4.8,0.,4.8,0.,4.8,0.,4.8
1979-07-16 18:14:42.350 ,4,0,0.,4.8,0.,4.8,0.,4.8,0.,4.8
1979-07-16 18:14:47.150 ,4,0,0.,4.8,0.,4.8,0.,4.8,0.,4.8
1979-07-16 18:14:51.950 ,4,0,0.,4.8,0.,4.8,0.,4.8,0.,4.8
1979-07-16 18:14:56.750 ,4,0,1.,4.8,0.,4.8,0.,4.8,0.,4.8
1979-07-16 18:15:01.550 ,4,0,1.,4.8,0.,4.8,0.,4.8,0.,4.8
1979-07-16 18:15:06.350 ,4,0,4.,4.8,0.,4.8,0.,4.8,0.,4.8
1979-07-16 18:15:11.150 ,5,0,1.,4.8,0.,4.8,0.,4.8,0.,4.8
1979-07-16 18:15:15.950 ,5,0,1.,4.8,0.,4.8,0.,4.8,0.,4.8
1979-07-16 18:15:20.750 ,5,0,0.,4.8,0.,4.8,0.,4.8,0.,4.8
1979-07-16 18:15:25.550 ,5,0,0.,4.8,0.,4.8,0.,4.8,0.,4.8
1979-07-16 18:15:30.350 ,5,0,0.,4.8,0.,4.8,0.,4.8,0.,4.8
1979-07-16 18:15:35.150 ,5,0,1.,4.8,0.,4.8,0.,4.8,0.,4.8
1979-07-16 18:15:39.950 ,5,0,0.,4.8,0.,4.8,0.,4.8,0.,4.8
1979-07-16 18:15:44.750 ,5,0,0.,4.8,0.,4.8,0.,4.8,0.,4.8
1979-07-16 18:15:49.550 ,5,0,1.,4.8,0.,4.8,0.,4.8,0.,4.8
1979-07-16 18:15:54.350 ,5,0,0.,4.8,0.,4.8,0.,4.8,0.,4.8
1979-07-16 18:15:59.150 ,6,0,0.,4.8,0.,4.8,0.,4.8,0.,4.8
1979-07-16 18:16:03.950 ,6,0,1.,4.8,0.,4.8,0.,4.8,0.,4.8
1979-07-16 18:16:08.750 ,6,0,0.,4.8,0.,4.8,0.,4.8,0.,4.8
1979-07-16 18:16:13.550 ,6,0,1.,4.8,0.,4.8,0.,4.8,0.,4.8
1979-07-16 18:16:18.350 ,6,0,0.,4.8,0.,4.8,0.,4.8,0.,4.8
1979-07-16 18:16:23.150 ,6,0,0.,4.8,0.,4.8,0.,4.8,0.,4.8
1979-07-16 18:16:27.950 ,6,0,0.,4.8,0.,4.8,0.,4.8,0.,4.8
1979-07-16 18:16:32.750 ,6,0,0.,4.8,0.,4.8,0.,4.8,0.,4.8
1979-07-16 18:16:37.550 ,6,0,0.,4.8,0.,4.8,0.,4.8,1.,4.8
1979-07-16 18:16:42.350 ,6,0,1.,4.8,0.,4.8,0.,4.8,0.,4.8
1979-07-16 18:16:47.150 ,7,0,0.,4.8,0.,4.8,0.,4.8,0.,4.8
1979-07-16 18:16:51.950 ,7,0,0.,4.8,0.,4.8,0.,4.8,0.,4.8
1979-07-16 18:16:56.750 ,7,0,0.,4.8,0.,4.8,0.,4.8,0.,4.8
1979-07-16 18:17:01.550 ,7,0,0.,4.8,0.,4.8,0.,4.8,0.,4.8
1979-07-16 18:17:06.350 ,7,0,0.,4.8,0.,4.8,0.,4.8,0.,4.8
1979-07-16 18:17:11.150 ,7,0,0.,4.8,0.,4.8,0.,4.8,0.,4.8
1979-07-16 18:17:15.950 ,7,0,0.,4.8,0.,4.8,0.,4.8,0.,4.8
1979-07-16 18:17:20.750 ,7,0,0.,4.8,0.,4.8,0.,4.8,0.,4.8
1979-07-16 18:17:25.550 ,7,0,0.,4.8,0.,4.8,0.,4.8,0.,4.8
1979-07-16 18:17:30.350 ,7,0,1.,4.8,0.,4.8,0.,4.8,0.,4.8
1979-07-16 18:17:35.150 ,7,0,0.,4.8,0.,4.8,0.,4.8,0.,4.8
1979-07-16 18:17:39.950 ,7,0,0.,4.8,0.,4.8,0.,4.8,0.,4.8
1979-07-16 18:17:44.750 ,7,0,0.,4.8,0.,4.8,0.,4.8,0.,4.8
1979-07-16 18:17:49.550 ,7,0,0.,4.8,0.,4.8,0.,4.8,0.,4.8
1979-07-16 18:17:54.350 ,7,0,1.,4.8,0.,4.8,0.,4.8,0.,4.8
1979-07-16 18:17:59.150 ,7,0,0.,4.8,0.,4.8,0.,4.8,0.,4.8
1979-07-16 18:18:03.950 ,7,0,0.,4.8,0.,4.8,0.,4.8,0.,4.8
1979-07-16 18:18:08.750 ,7,0,0.,4.8,0.,4.8,0.,4.8,0.,4.8
1979-07-16 18:18:13.550 ,7,0,0.,4.8,0.,4.8,0.,4.8,0.,4.8
1979-07-16 18:18:18.350 ,7,0,0.,4.8,0.,4.8,0.,4.8,0.,4.8
1979-07-16 18:18:23.150 ,6,0,0.,4.8,0.,4.8,0.,4.8,0.,4.8
1979-07-16 18:18:27.950 ,6,0,0.,4.8,0.,4.8,0.,4.8,0.,4.8
1979-07-16 18:18:32.750 ,6,0,1.,4.8,0.,4.8,0.,4.8,0.,4.8
1979-07-16 18:18:37.550 ,6,0,0.,4.8,0.,4.8,0.,4.8,0.,4.8
1979-07-16 18:18:42.350 ,6,0,0.,4.8,0.,4.8,0.,4.8,0.,4.8
1979-07-16 18:18:47.150 ,6,0,0.,4.8,0.,4.8,0.,4.8,1.,4.8
1979-07-16 18:18:51.950 ,6,0,1.,4.8,0.,4.8,0.,4.8,0.,4.8
1979-07-16 18:18:56.750 ,6,0,1.,4.8,0.,4.8,0.,4.8,0.,4.8
1979-07-16 18:19:01.550 ,6,0,1.,4.8,0.,4.8,0.,4.8,0.,4.8
1979-07-16 18:19:06.350 ,6,0,1.,4.8,0.,4.8,0.,4.8,1.,4.8
1979-07-16 18:19:11.150 ,5,0,0.,4.8,0.,4.8,0.,4.8,0.,4.8
1979-07-16 18:19:15.950 ,5,0,0.,4.8,0.,4.8,0.,4.8,0.,4.8
1979-07-16 18:19:20.750 ,5,0,1.,4.8,0.,4.8,0.,4.8,0.,4.8
1979-07-16 18:19:25.550 ,5,0,0.,4.8,0.,4.8,0.,4.8,0.,4.8
1979-07-16 18:19:30.350 ,5,0,0.,4.8,0.,4.8,0.,4.8,0.,4.8
1979-07-16 18:19:35.150 ,5,0,0.,4.8,0.,4.8,0.,4.8,0.,4.8
1979-07-16 18:19:39.950 ,5,0,0.,4.8,0.,4.8,0.,4.8,0.,4.8
1979-07-16 18:19:44.750 ,5,0,0.,4.8,0.,4.8,0.,4.8,0.,4.8
1979-07-16 18:19:49.550 ,5,0,0.,4.8,0.,4.8,0.,4.8,0.,4.8
1979-07-16 18:19:54.350 ,5,0,0.,4.8,0.,4.8,0.,4.8,0.,4.8
1979-07-16 18:19:59.150 ,4,0,0.,4.8,0.,4.8,0.,4.8,0.,4.8
1979-07-16 18:20:03.950 ,4,0,0.,4.8,0.,4.8,0.,4.8,0.,4.8
1979-07-16 18:20:08.750 ,4,0,0.,4.8,0.,4.8,0.,4.8,0.,4.8
1979-07-16 18:20:13.550 ,4,0,0.,4.8,0.,4.8,0.,4.8,0.,4.8
1979-07-16 18:20:18.350 ,4,0,0.,4.8,0.,4.8,0.,4.8,0.,4.8
1979-07-16 18:20:23.150 ,4,0,1.,4.8,0.,4.8,0.,4.8,0.,4.8
1979-07-16 18:20:27.950 ,4,0,0.,4.8,0.,4.8,0.,4.8,0.,4.8
1979-07-16 18:20:32.750 ,4,0,1.,4.8,0.,4.8,0.,4.8,0.,4.8
1979-07-16 18:20:37.550 ,4,0,3.,4.8,0.,4.8,0.,4.8,0.,4.8
1979-07-16 18:20:42.350 ,4,0,1.,4.8,0.,4.8,0.,4.8,0.,4.8
1979-07-16 18:20:47.150 ,3,0,0.,4.8,0.,4.8,0.,4.8,0.,4.8
1979-07-16 18:20:51.950 ,3,0,0.,4.8,0.,4.8,0.,4.8,0.,4.8
1979-07-16 18:20:56.750 ,3,0,1.,4.8,0.,4.8,0.,4.8,0.,4.8
1979-07-16 18:21:01.550 ,3,0,0.,4.8,0.,4.8,0.,4.8,0.,4.8
1979-07-16 18:21:06.350 ,3,0,0.,4.8,0.,4.8,0.,4.8,0.,4.8
1979-07-16 18:21:11.150 ,3,0,1.,4.8,0.,4.8,0.,4.8,0.,4.8
1979-07-16 18:21:15.950 ,3,0,0.,4.8,0.,4.8,0.,4.8,0.,4.8
1979-07-16 18:21:20.750 ,3,0,1.,4.8,0.,4.8,0.,4.8,0.,4.8
1979-07-16 18:21:25.550 ,3,0,1.,4.8,0.,4.8,0.,4.8,0.,4.8
1979-07-16 18:21:30.350 ,3,0,0.,4.8,0.,4.8,0.,4.8,0.,4.8
1979-07-16 18:21:35.150 ,2,0,1.,4.8,0.,4.8,0.,4.8,0.,4.8
1979-07-16 18:21:39.950 ,2,0,0.,4.8,0.,4.8,0.,4.8,0.,4.8
1979-07-16 18:21:44.750 ,2,0,0.,4.8,0.,4.8,0.,4.8,0.,4.8
1979-07-16 18:21:49.550 ,2,0,1.,4.8,0.,4.8,0.,4.8,0.,4.8
1979-07-16 18:21:54.350 ,2,0,0.,4.8,0.,4.8,0.,4.8,0.,4.8
1979-07-16 18:21:59.150 ,2,0,0.,4.8,0.,4.8,0.,4.8,0.,4.8
1979-07-16 18:22:03.950 ,2,0,0.,4.8,0.,4.8,0.,4.8,0.,4.8
1979-07-16 18:22:08.750 ,2,0,2.,4.8,0.,4.8,0.,4.8,0.,4.8
1979-07-16 18:22:13.550 ,2,0,1.,4.8,0.,4.8,0.,4.8,0.,4.8
1979-07-16 18:22:18.350 ,2,0,0.,4.8,0.,4.8,0.,4.8,0.,4.8
1979-07-16 18:22:23.150 ,1,0,0.,4.8,0.,4.8,0.,4.8,0.,4.8
1979-07-16 18:22:27.950 ,1,0,2.,4.8,0.,4.8,0.,4.8,1.,4.8
1979-07-16 18:22:32.750 ,1,0,0.,4.8,0.,4.8,0.,4.8,0.,4.8
1979-07-16 18:22:37.550 ,1,0,0.,4.8,0.,4.8,0.,4.8,0.,4.8
1979-07-16 18:22:42.350 ,1,0,0.,4.8,0.,4.8,0.,4.8,0.,4.8
1979-07-16 18:22:47.150 ,1,0,0.,4.8,0.,4.8,0.,4.8,1.,4.8
1979-07-16 18:22:51.950 ,1,0,0.,4.8,0.,4.8,0.,4.8,1.,4.8
1979-07-16 18:22:56.750 ,1,0,1.,4.8,0.,4.8,0.,4.8,0.,4.8
1979-07-16 18:23:01.550 ,1,0,0.,4.8,0.,4.8,0.,4.8,0.,4.8
1979-07-16 18:23:06.350 ,1,0,0.,4.8,0.,4.8,0.,4.8,0.,4.8
1979-07-16 18:23:11.150 ,0,0,0.,4.8,0.,4.8,0.,4.8,0.,4.8
1979-07-16 18:23:15.950 ,0,0,0.,4.8,0.,4.8,0.,4.8,0.,4.8
1979-07-16 18:23:20.750 ,0,0,1.,4.8,0.,4.8,0.,4.8,0.,4.8
1979-07-16 18:23:25.550 ,0,0,1.,4.8,0.,4.8,0.,4.8,0.,4.8
1979-07-16 18:23:30.350 ,0,0,1.,4.8,0.,4.8,0.,4.8,0.,4.8
1979-07-16 18:23:35.150 ,0,0,1.,4.8,0.,4.8,0.,4.8,0.,4.8
1979-07-16 18:23:39.950 ,0,0,0.,4.8,0.,4.8,0.,4.8,0.,4.8
1979-07-16 18:23:44.750 ,0,0,0.,4.8,0.,4.8,0.,4.8,0.,4.8
1979-07-16 18:23:49.550 ,0,0,1.,4.8,0.,4.8,0.,4.8,0.,4.8
1979-07-16 18:23:54.350 ,0,0,1.,4.8,0.,4.8,0.,4.8,0.,4.8
1979-07-16 18:23:59.150 ,0,0,1.,4.8,0.,4.8,0.,4.8,0.,4.8
1979-07-16 18:24:03.950 ,0,0,0.,4.8,0.,4.8,0.,4.8,0.,4.8
1979-07-16 18:24:08.750 ,0,0,0.,4.8,0.,4.8,0.,4.8,0.,4.8
1979-07-16 18:24:13.550 ,0,0,0.,4.8,0.,4.8,0.,4.8,0.,4.8
1979-07-16 18:24:18.350 ,0,0,1.,4.8,0.,4.8,0.,4.8,1.,4.8
1979-07-16 18:24:23.150 ,0,0,0.,4.8,0.,4.8,0.,4.8,0.,4.8
1979-07-16 18:24:27.950 ,0,0,0.,4.8,0.,4.8,0.,4.8,0.,4.8
1979-07-16 18:24:32.750 ,0,0,0.,4.8,0.,4.8,0.,4.8,0.,4.8
1979-07-16 18:24:37.550 ,0,0,1.,4.8,0.,4.8,0.,4.8,0.,4.8
1979-07-16 18:24:42.350 ,0,0,1.,4.8,0.,4.8,0.,4.8,0.,4.8
1979-07-16 18:24:47.150 ,1,0,1.,4.8,0.,4.8,0.,4.8,0.,4.8
1979-07-16 18:24:51.950 ,1,0,0.,4.8,0.,4.8,0.,4.8,0.,4.8
1979-07-16 18:24:56.750 ,1,0,0.,4.8,0.,4.8,0.,4.8,0.,4.8
1979-07-16 18:25:01.550 ,1,0,1.,4.8,0.,4.8,0.,4.8,0.,4.8
1979-07-16 18:25:06.350 ,1,0,0.,4.8,0.,4.8,0.,4.8,0.,4.8
1979-07-16 18:25:11.150 ,1,0,0.,4.8,0.,4.8,0.,4.8,1.,4.8
1979-07-16 18:25:15.950 ,1,0,0.,4.8,0.,4.8,0.,4.8,0.,4.8
1979-07-16 18:25:20.750 ,1,0,0.,4.8,0.,4.8,0.,4.8,1.,4.8
1979-07-16 18:25:25.550 ,1,0,0.,4.8,0.,4.8,0.,4.8,0.,4.8
1979-07-16 18:25:30.350 ,1,0,0.,4.8,0.,4.8,0.,4.8,0.,4.8
1979-07-16 18:25:35.150 ,2,0,0.,4.8,0.,4.8,0.,4.8,0.,4.8
1979-07-16 18:25:39.950 ,2,0,0.,4.8,0.,4.8,0.,4.8,0.,4.8
1979-07-16 18:25:44.750 ,2,0,0.,4.8,0.,4.8,0.,4.8,0.,4.8
1979-07-16 18:25:49.550 ,2,0,0.,4.8,0.,4.8,0.,4.8,0.,4.8
1979-07-16 18:25:54.350 ,2,0,0.,4.8,0.,4.8,0.,4.8,0.,4.8
1979-07-16 18:25:59.150 ,2,0,0.,4.8,0.,4.8,0.,4.8,0.,4.8
1979-07-16 18:26:03.950 ,2,0,0.,4.8,0.,4.8,0.,4.8,0.,4.8
1979-07-16 18:26:08.750 ,2,0,1.,4.8,0.,4.8,0.,4.8,0.,4.8
1979-07-16 18:26:13.550 ,2,0,0.,4.8,0.,4.8,0.,4.8,0.,4.8
1979-07-16 18:26:18.350 ,2,0,0.,4.8,0.,4.8,0.,4.8,0.,4.8
1979-07-16 18:26:23.150 ,3,0,0.,4.8,0.,4.8,0.,4.8,0.,4.8
1979-07-16 18:26:27.950 ,3,0,0.,4.8,0.,4.8,0.,4.8,0.,4.8
1979-07-16 18:26:32.750 ,3,0,0.,4.8,0.,4.8,0.,4.8,0.,4.8
1979-07-16 18:26:37.550 ,3,0,1.,4.8,0.,4.8,0.,4.8,0.,4.8
1979-07-16 18:26:42.350 ,3,0,1.,4.8,0.,4.8,0.,4.8,0.,4.8
1979-07-16 18:26:47.150 ,3,0,0.,4.8,0.,4.8,0.,4.8,1.,4.8
1979-07-16 18:26:51.950 ,3,0,0.,4.8,0.,4.8,0.,4.8,0.,4.8
1979-07-16 18:26:56.750 ,3,0,1.,4.8,0.,4.8,0.,4.8,0.,4.8
1979-07-16 18:27:01.550 ,3,0,0.,4.8,0.,4.8,0.,4.8,0.,4.8
1979-07-16 18:27:06.350 ,3,0,0.,4.8,0.,4.8,0.,4.8,0.,4.8
1979-07-16 18:27:11.150 ,4,0,1.,4.8,0.,4.8,0.,4.8,0.,4.8
1979-07-16 18:27:15.950 ,4,0,0.,4.8,0.,4.8,0.,4.8,0.,4.8
1979-07-16 18:27:20.750 ,4,0,0.,4.8,0.,4.8,0.,4.8,0.,4.8
1979-07-16 18:27:25.550 ,4,0,0.,4.8,0.,4.8,0.,4.8,0.,4.8
1979-07-16 18:27:30.350 ,4,0,1.,4.8,0.,4.8,0.,4.8,0.,4.8
1979-07-16 18:27:35.150 ,4,0,1.,4.8,0.,4.8,0.,4.8,0.,4.8
1979-07-16 18:27:39.950 ,4,0,0.,4.8,0.,4.8,0.,4.8,0.,4.8
1979-07-16 18:27:44.750 ,4,0,0.,4.8,0.,4.8,0.,4.8,0.,4.8
1979-07-16 18:27:49.550 ,4,0,0.,4.8,0.,4.8,0.,4.8,0.,4.8
1979-07-16 18:27:54.350 ,4,0,0.,4.8,0.,4.8,0.,4.8,0.,4.8
1979-07-16 18:27:59.150 ,5,0,0.,4.8,0.,4.8,0.,4.8,0.,4.8
1979-07-16 18:28:03.950 ,5,0,1.,4.8,0.,4.8,0.,4.8,0.,4.8
1979-07-16 18:28:08.750 ,5,0,0.,4.8,0.,4.8,0.,4.8,0.,4.8
1979-07-16 18:28:13.550 ,5,0,0.,4.8,0.,4.8,0.,4.8,0.,4.8
1979-07-16 18:28:18.350 ,5,0,1.,4.8,0.,4.8,0.,4.8,0.,4.8
1979-07-16 18:28:23.150 ,5,0,0.,4.8,0.,4.8,0.,4.8,0.,4.8
1979-07-16 18:28:27.950 ,5,0,0.,4.8,0.,4.8,0.,4.8,0.,4.8
1979-07-16 18:28:32.750 ,5,0,2.,4.8,0.,4.8,0.,4.8,0.,4.8
1979-07-16 18:28:37.550 ,5,0,0.,4.8,0.,4.8,0.,4.8,0.,4.8
1979-07-16 18:28:42.350 ,5,0,0.,4.8,0.,4.8,0.,4.8,0.,4.8
1979-07-16 18:28:47.150 ,6,0,1.,4.8,0.,4.8,0.,4.8,1.,4.8
1979-07-16 18:28:51.950 ,6,0,1.,4.8,0.,4.8,0.,4.8,0.,4.8
1979-07-16 18:28:56.750 ,6,0,1.,4.8,0.,4.8,0.,4.8,0.,4.8
1979-07-16 18:29:01.550 ,6,0,1.,4.8,0.,4.8,0.,4.8,0.,4.8
1979-07-16 18:29:06.350 ,6,0,0.,4.8,0.,4.8,0.,4.8,0.,4.8
1979-07-16 18:29:11.150 ,6,0,1.,4.8,0.,4.8,0.,4.8,0.,4.8
1979-07-16 18:29:15.950 ,6,0,0.,4.8,0.,4.8,0.,4.8,0.,4.8
1979-07-16 18:29:20.750 ,6,0,0.,4.8,0.,4.8,0.,4.8,0.,4.8
1979-07-16 18:29:25.550 ,6,0,0.,4.8,0.,4.8,0.,4.8,0.,4.8
1979-07-16 18:29:30.350 ,6,0,0.,4.8,0.,4.8,0.,4.8,0.,4.8
1979-07-16 18:29:35.150 ,7,0,0.,4.8,0.,4.8,0.,4.8,0.,4.8
1979-07-16 18:29:39.950 ,7,0,0.,4.8,0.,4.8,0.,4.8,0.,4.8
1979-07-16 18:29:44.750 ,7,0,0.,4.8,0.,4.8,0.,4.8,0.,4.8
1979-07-16 18:29:49.550 ,7,0,0.,4.8,0.,4.8,0.,4.8,0.,4.8
1979-07-16 18:29:54.350 ,7,0,0.,4.8,0.,4.8,0.,4.8,0.,4.8
1979-07-16 18:29:59.150 ,7,0,0.,4.8,0.,4.8,0.,4.8,0.,4.8
1979-07-16 18:30:03.950 ,7,0,1.,4.8,0.,4.8,0.,4.8,0.,4.8
1979-07-16 18:30:08.750 ,7,0,0.,4.8,0.,4.8,0.,4.8,0.,4.8
1979-07-16 18:30:13.550 ,7,0,0.,4.8,0.,4.8,0.,4.8,0.,4.8
1979-07-16 18:30:18.350 ,7,0,0.,4.8,0.,4.8,0.,4.8,0.,4.8
1979-07-16 18:30:23.150 ,7,0,0.,4.8,0.,4.8,0.,4.8,0.,4.8
1979-07-16 18:30:27.950 ,7,0,1.,4.8,0.,4.8,0.,4.8,0.,4.8
1979-07-16 18:30:32.750 ,7,0,0.,4.8,0.,4.8,0.,4.8,0.,4.8
1979-07-16 18:30:37.550 ,7,0,0.,4.8,0.,4.8,0.,4.8,0.,4.8
1979-07-16 18:30:42.350 ,7,0,0.,4.8,0.,4.8,0.,4.8,0.,4.8
1979-07-16 18:30:47.150 ,7,0,0.,4.8,0.,4.8,0.,4.8,0.,4.8
1979-07-16 18:30:51.950 ,7,0,0.,4.8,0.,4.8,0.,4.8,0.,4.8
1979-07-16 18:30:56.750 ,7,0,0.,4.8,0.,4.8,0.,4.8,0.,4.8
1979-07-16 18:31:01.550 ,7,0,1.,4.8,0.,4.8,0.,4.8,0.,4.8
1979-07-16 18:31:06.350 ,7,0,1.,4.8,0.,4.8,0.,4.8,0.,4.8
1979-07-16 18:31:59.150 ,0,0,0.,4.8,0.,4.8,0.,4.8,0.,4.8
1979-07-16 18:32:03.950 ,0,0,0.,4.8,0.,4.8,0.,4.8,1.,4.8
1979-07-16 18:32:08.750 ,0,0,1.,4.8,0.,4.8,0.,4.8,0.,4.8
1979-07-16 18:32:13.550 ,0,0,2.,4.8,0.,4.8,0.,4.8,0.,4.8
1979-07-16 18:32:18.350 ,0,0,0.,4.8,0.,4.8,0.,4.8,0.,4.8
1979-07-16 18:32:23.150 ,0,0,1.,4.8,0.,4.8,0.,4.8,0.,4.8
1979-07-16 18:32:27.950 ,0,0,0.,4.8,0.,4.8,0.,4.8,0.,4.8
1979-07-16 18:32:32.750 ,0,0,0.,4.8,0.,4.8,0.,4.8,1.,4.8
1979-07-16 18:32:37.550 ,0,0,1.,4.8,0.,4.8,0.,4.8,0.,4.8
1979-07-16 18:32:42.350 ,0,0,0.,4.8,0.,4.8,0.,4.8,0.,4.8
1979-07-16 18:32:47.150 ,4,0,0.,4.8,0.,4.8,0.,4.8,0.,4.8
1979-07-16 18:32:51.950 ,4,0,0.,4.8,0.,4.8,0.,4.8,0.,4.8
1979-07-16 18:32:56.750 ,4,0,0.,4.8,0.,4.8,0.,4.8,0.,4.8
1979-07-16 18:33:01.550 ,4,0,0.,4.8,0.,4.8,0.,4.8,0.,4.8
1979-07-16 18:33:06.350 ,4,0,0.,4.8,0.,4.8,0.,4.8,0.,4.8
1979-07-16 18:33:11.150 ,4,0,1.,4.8,0.,4.8,0.,4.8,0.,4.8
1979-07-16 18:33:15.950 ,4,0,1.,4.8,0.,4.8,0.,4.8,0.,4.8
1979-07-16 18:33:20.750 ,4,0,0.,4.8,0.,4.8,0.,4.8,0.,4.8
1979-07-16 18:33:25.550 ,4,0,0.,4.8,0.,4.8,0.,4.8,0.,4.8
1979-07-16 18:33:30.350 ,4,0,1.,4.8,0.,4.8,0.,4.8,0.,4.8
1979-07-16 18:33:35.150 ,3,0,0.,4.8,0.,4.8,0.,4.8,0.,4.8
1979-07-16 18:33:39.950 ,3,0,1.,4.8,0.,4.8,0.,4.8,1.,4.8
1979-07-16 18:33:44.750 ,3,0,0.,4.8,0.,4.8,0.,4.8,0.,4.8
1979-07-16 18:33:49.550 ,3,0,1.,4.8,0.,4.8,0.,4.8,0.,4.8
1979-07-16 18:33:54.350 ,3,0,0.,4.8,0.,4.8,0.,4.8,0.,4.8
1979-07-16 18:33:59.150 ,3,0,2.,4.8,0.,4.8,0.,4.8,1.,4.8
1979-07-16 18:34:03.950 ,3,0,1.,4.8,0.,4.8,0.,4.8,0.,4.8
1979-07-16 18:34:08.750 ,3,0,1.,4.8,0.,4.8,0.,4.8,0.,4.8
1979-07-16 18:34:13.550 ,3,0,1.,4.8,0.,4.8,0.,4.8,0.,4.8
1979-07-16 18:34:18.350 ,3,0,0.,4.8,0.,4.8,0.,4.8,0.,4.8
1979-07-16 18:34:23.150 ,2,0,0.,4.8,0.,4.8,0.,4.8,0.,4.8
1979-07-16 18:34:27.950 ,2,0,0.,4.8,0.,4.8,0.,4.8,0.,4.8
1979-07-16 18:34:32.750 ,2,0,2.,4.8,0.,4.8,0.,4.8,0.,4.8
1979-07-16 18:34:37.550 ,2,0,0.,4.8,0.,4.8,0.,4.8,0.,4.8
1979-07-16 18:34:42.350 ,2,0,0.,4.8,0.,4.8,0.,4.8,0.,4.8
1979-07-16 18:34:47.150 ,2,0,1.,4.8,0.,4.8,0.,4.8,0.,4.8
1979-07-16 18:34:51.950 ,2,0,0.,4.8,0.,4.8,0.,4.8,0.,4.8
1979-07-16 18:34:56.750 ,2,0,0.,4.8,0.,4.8,0.,4.8,0.,4.8
1979-07-16 18:35:01.550 ,2,0,0.,4.8,0.,4.8,0.,4.8,0.,4.8
1979-07-16 18:35:06.350 ,2,0,0.,4.8,0.,4.8,0.,4.8,0.,4.8
1979-07-16 18:35:11.150 ,1,0,0.,4.8,0.,4.8,0.,4.8,0.,4.8
1979-07-16 18:35:15.950 ,1,0,0.,4.8,0.,4.8,0.,4.8,0.,4.8
1979-07-16 18:35:20.750 ,1,0,0.,4.8,0.,4.8,0.,4.8,0.,4.8
1979-07-16 18:35:25.550 ,1,0,1.,4.8,0.,4.8,0.,4.8,0.,4.8